| time (UTC) | temp F | wind direction | speed knots | gust knots | rain 1hr in | rain 24hr in | rain mn in | humidity % | barometer mb |
| 20260506182129 | 82 | 154 | 0.0 | 3.5 | 0.00 | 0.00 | 0.00 | 77 | 1009.0 |
| 20260506181629 | 82 | 75 | 2.6 | 3.5 | 0.00 | 0.00 | 0.00 | 77 | 1009.1 |
| 20260506181129 | 82 | 137 | 2.6 | 4.3 | 0.00 | 0.00 | 0.00 | 77 | 1009.2 |
| 20260506180628 | 82 | 114 | 1.7 | 4.3 | 0.00 | 0.00 | 0.00 | 77 | 1009.2 |
| 20260506180129 | 82 | 141 | 2.6 | 3.5 | 0.00 | 0.00 | 0.00 | 78 | 1009.2 |
| 20260506175629 | 82 | 58 | 0.0 | 3.5 | 0.00 | 0.00 | 0.00 | 78 | 1009.2 |
| 20260506175128 | 81 | 66 | 1.7 | 2.6 | 0.00 | 0.00 | 0.00 | 78 | 1009.3 |
| 20260506174629 | 81 | 80 | 0.0 | 2.6 | 0.00 | 0.00 | 0.00 | 78 | 1009.3 |
| 20260506174128 | 81 | 83 | 0.0 | 1.7 | 0.00 | 0.00 | 0.00 | 78 | 1009.3 |
| 20260506173631 | 81 | 123 | 0.0 | 3.5 | 0.00 | 0.00 | 0.00 | 78 | 1009.3 |
| 20260506173131 | 81 | 290 | 0.0 | 3.5 | 0.00 | 0.00 | 0.00 | 79 | 1009.3 |
| 20260506172630 | 81 | 190 | 1.7 | 3.5 | 0.00 | 0.00 | 0.00 | 79 | 1009.3 |
| 20260506172130 | 80 | 56 | 0.0 | 2.6 | 0.00 | 0.00 | 0.00 | 79 | 1009.4 |
| 20260506171630 | 80 | 178 | 1.7 | 3.5 | 0.00 | 0.00 | 0.00 | 79 | 1009.4 |
| 20260506171129 | 80 | 127 | 0.9 | 4.3 | 0.00 | 0.00 | 0.00 | 79 | 1009.3 |
| 20260506170130 | 80 | 206 | 1.7 | 3.5 | 0.00 | 0.00 | 0.00 | 79 | 1009.2 |
| 20260506165630 | 80 | 183 | 1.7 | 5.2 | 0.00 | 0.00 | 0.00 | 79 | 1009.1 |
| 20260506164630 | 80 | 111 | 2.6 | 6.1 | 0.00 | 0.00 | 0.00 | 79 | 1009.1 |
| 20260506164130 | 80 | 109 | 1.7 | 6.1 | 0.00 | 0.00 | 0.00 | 79 | 1009.1 |
| 20260506163128 | 80 | 131 | 3.5 | 11.3 | 0.00 | 0.00 | 0.00 | 79 | 1008.8 |
| 20260506162628 | 80 | 161 | 4.3 | 11.3 | 0.00 | 0.00 | 0.00 | 79 | 1008.8 |
| 20260506162130 | 80 | 149 | 5.2 | 12.2 | 0.00 | 0.00 | 0.00 | 79 | 1008.7 |
| 20260506161630 | 80 | 137 | 5.2 | 12.2 | 0.00 | 0.00 | 0.00 | 79 | 1008.7 |
| 20260506161129 | 80 | 125 | 5.2 | 11.3 | 0.00 | 0.00 | 0.00 | 78 | 1008.7 |
| 20260506160629 | 80 | 151 | 7.0 | 10.4 | 0.00 | 0.00 | 0.00 | 78 | 1008.7 |
| 20260506160129 | 80 | 157 | 3.5 | 10.4 | 0.00 | 0.00 | 0.00 | 78 | 1008.6 |
| 20260506155629 | 80 | 176 | 7.0 | 12.2 | 0.00 | 0.00 | 0.00 | 78 | 1008.5 |
| 20260506155129 | 80 | 202 | 6.1 | 12.2 | 0.00 | 0.00 | 0.00 | 78 | 1008.3 |
| 20260506154629 | 80 | 148 | 5.2 | 12.2 | 0.00 | 0.00 | 0.00 | 79 | 1008.3 |
| 20260506154128 | 80 | 186 | 6.1 | 12.2 | 0.00 | 0.00 | 0.00 | 79 | 1008.3 |
| 20260506153629 | 80 | 140 | 4.3 | 9.6 | 0.00 | 0.00 | 0.00 | 79 | 1008.3 |
| 20260506153129 | 80 | 120 | 6.1 | 11.3 | 0.00 | 0.00 | 0.00 | 79 | 1008.3 |
| 20260506152129 | 80 | 149 | 5.2 | 12.2 | 0.00 | 0.00 | 0.00 | 80 | 1008.2 |
| 20260506151629 | 80 | 124 | 7.0 | 12.2 | 0.00 | 0.00 | 0.00 | 80 | 1008.1 |
| 20260506150628 | 79 | 158 | 3.5 | 14.8 | 0.00 | 0.00 | 0.00 | 80 | 1008.1 |
| 20260506150128 | 79 | 142 | 7.0 | 14.8 | 0.00 | 0.00 | 0.00 | 80 | 1008.0 |
| 20260506145128 | 79 | 162 | 6.1 | 10.4 | 0.00 | 0.00 | 0.00 | 81 | 1007.9 |
| 20260506144629 | 79 | 169 | 7.0 | 12.2 | 0.00 | 0.00 | 0.00 | 81 | 1007.9 |
| 20260506144128 | 79 | 190 | 7.0 | 12.2 | 0.00 | 0.00 | 0.00 | 82 | 1007.9 |
| 20260506143628 | 78 | 140 | 7.0 | 11.3 | 0.00 | 0.00 | 0.00 | 82 | 1007.8 |
| 20260506143128 | 78 | 165 | 7.8 | 11.3 | 0.00 | 0.00 | 0.00 | 82 | 1007.7 |
| 20260506142628 | 78 | 140 | 6.1 | 11.3 | 0.00 | 0.00 | 0.00 | 83 | 1007.8 |
| 20260506142128 | 78 | 161 | 6.1 | 11.3 | 0.00 | 0.00 | 0.00 | 83 | 1007.9 |
| 20260506141627 | 78 | 113 | 7.0 | 12.2 | 0.00 | 0.00 | 0.00 | 83 | 1007.9 |
| 20260506141127 | 77 | 134 | 7.0 | 12.2 | 0.00 | 0.00 | 0.00 | 83 | 1007.9 |
| 20260506140627 | 77 | 200 | 6.1 | 12.2 | 0.00 | 0.00 | 0.00 | 83 | 1007.9 |
| 20260506140127 | 77 | 138 | 6.1 | 12.2 | 0.00 | 0.00 | 0.00 | 83 | 1007.8 |
| 20260506135627 | 77 | 127 | 8.7 | 12.2 | 0.00 | 0.00 | 0.00 | 83 | 1007.8 |
| 20260506135127 | 77 | 116 | 5.2 | 12.2 | 0.00 | 0.00 | 0.00 | 84 | 1007.8 |
| 20260506134627 | 76 | 110 | 4.3 | 9.6 | 0.00 | 0.00 | 0.00 | 84 | 1007.8 |
| 20260506134127 | 76 | 147 | 5.2 | 11.3 | 0.00 | 0.00 | 0.00 | 84 | 1007.8 |
| 20260506133627 | 76 | 110 | 6.1 | 11.3 | 0.00 | 0.00 | 0.00 | 84 | 1007.7 |
| 20260506133127 | 76 | 134 | 4.3 | 9.6 | 0.00 | 0.00 | 0.00 | 84 | 1007.8 |
| 20260506132626 | 76 | 124 | 7.0 | 9.6 | 0.00 | 0.00 | 0.00 | 84 | 1007.8 |
| 20260506132127 | 76 | 134 | 4.3 | 8.7 | 0.00 | 0.00 | 0.00 | 84 | 1007.8 |
| 20260506131627 | 76 | 127 | 3.5 | 8.7 | 0.00 | 0.00 | 0.00 | 84 | 1007.9 |
| 20260506131126 | 76 | 138 | 4.3 | 8.7 | 0.00 | 0.00 | 0.00 | 84 | 1007.9 |
| 20260506130126 | 76 | 73 | 5.2 | 8.7 | 0.00 | 0.00 | 0.00 | 84 | 1007.8 |
| 20260506125626 | 76 | 0 | 3.5 | 10.4 | 0.00 | 0.00 | 0.00 | 84 | 1007.8 |
| 20260506124626 | 75 | 114 | 3.5 | 8.7 | 0.00 | 0.00 | 0.00 | 84 | 1007.7 |
| 20260506124125 | 75 | 102 | 5.2 | 8.7 | 0.00 | 0.00 | 0.00 | 84 | 1007.6 |
| 20260506123126 | 75 | 94 | 5.2 | 8.7 | 0.00 | 0.00 | 0.00 | 84 | 1007.5 |
| 20260506122625 | 75 | 94 | 5.2 | 9.6 | 0.00 | 0.00 | 0.00 | 84 | 1007.4 |
| 20260506121625 | 75 | 106 | 5.2 | 10.4 | 0.00 | 0.00 | 0.00 | 84 | 1007.5 |
| 20260506121128 | 75 | 120 | 5.2 | 9.6 | 0.00 | 0.00 | 0.00 | 84 | 1007.5 |
| 20260506120625 | 75 | 111 | 6.1 | 10.4 | 0.00 | 0.00 | 0.00 | 84 | 1007.5 |
| 20260506120125 | 75 | 104 | 7.0 | 10.4 | 0.00 | 0.00 | 0.00 | 84 | 1007.3 |
| 20260506115625 | 75 | 102 | 4.3 | 7.8 | 0.00 | 0.00 | 0.00 | 84 | 1007.3 |
| 20260506115125 | 75 | 93 | 5.2 | 7.8 | 0.00 | 0.00 | 0.00 | 84 | 1007.3 |
| 20260506114625 | 75 | 92 | 5.2 | 7.8 | 0.00 | 0.00 | 0.00 | 84 | 1007.3 |
| 20260506114123 | 75 | 120 | 4.3 | 7.8 | 0.00 | 0.00 | 0.00 | 84 | 1007.3 |
| 20260506113622 | 75 | 113 | 3.5 | 6.1 | 0.00 | 0.00 | 0.00 | 84 | 1007.4 |
| 20260506113123 | 75 | 106 | 4.3 | 6.1 | 0.00 | 0.00 | 0.00 | 84 | 1007.3 |
| 20260506112125 | 75 | 121 | 5.2 | 9.6 | 0.00 | 0.00 | 0.00 | 84 | 1007.3 |
| 20260506111624 | 75 | 135 | 3.5 | 9.6 | 0.00 | 0.00 | 0.00 | 83 | 1007.2 |
| 20260506111124 | 75 | 107 | 4.3 | 7.8 | 0.00 | 0.00 | 0.00 | 83 | 1007.2 |
| 20260506110624 | 75 | 0 | 4.3 | 8.7 | 0.00 | 0.00 | 0.00 | 83 | 1007.2 |
| 20260506110123 | 75 | 97 | 5.2 | 8.7 | 0.00 | 0.00 | 0.00 | 83 | 1007.2 |
| 20260506105624 | 75 | 116 | 5.2 | 7.8 | 0.00 | 0.00 | 0.00 | 83 | 1007.2 |
| 20260506105124 | 75 | 97 | 3.5 | 7.8 | 0.00 | 0.00 | 0.00 | 83 | 1007.3 |
| 20260506104624 | 75 | 123 | 3.5 | 7.8 | 0.00 | 0.00 | 0.00 | 83 | 1007.2 |
| 20260506104123 | 75 | 104 | 4.3 | 8.7 | 0.00 | 0.00 | 0.00 | 83 | 1007.2 |
| 20260506103624 | 75 | 92 | 5.2 | 8.7 | 0.00 | 0.00 | 0.00 | 83 | 1007.3 |
| 20260506103123 | 75 | 109 | 4.3 | 8.7 | 0.00 | 0.00 | 0.00 | 83 | 1007.3 |
| 20260506102124 | 75 | 103 | 3.5 | 6.1 | 0.00 | 0.00 | 0.00 | 82 | 1007.4 |
| 20260506101623 | 75 | 94 | 4.3 | 7.8 | 0.00 | 0.00 | 0.00 | 82 | 1007.3 |
| 20260506100623 | 76 | 93 | 4.3 | 7.8 | 0.00 | 0.00 | 0.00 | 82 | 1007.3 |
| 20260506100123 | 76 | 107 | 4.3 | 7.8 | 0.00 | 0.00 | 0.00 | 82 | 1007.2 |
| 20260506095123 | 76 | 107 | 3.5 | 7.8 | 0.00 | 0.00 | 0.00 | 82 | 1007.2 |
| 20260506094622 | 76 | 102 | 4.3 | 7.8 | 0.00 | 0.00 | 0.00 | 81 | 1007.2 |
| 20260506093623 | 76 | 0 | 4.3 | 8.7 | 0.00 | 0.00 | 0.00 | 81 | 1007.3 |
| 20260506093122 | 76 | 120 | 5.2 | 7.8 | 0.00 | 0.00 | 0.00 | 81 | 1007.3 |
| 20260506092122 | 76 | 76 | 3.5 | 9.6 | 0.00 | 0.00 | 0.00 | 81 | 1007.2 |
| 20260506091622 | 76 | 113 | 4.3 | 9.6 | 0.00 | 0.00 | 0.00 | 81 | 1007.3 |
| 20260506090622 | 76 | 117 | 4.3 | 9.6 | 0.00 | 0.00 | 0.00 | 81 | 1007.3 |
| 20260506090122 | 76 | 133 | 5.2 | 9.6 | 0.00 | 0.00 | 0.00 | 81 | 1007.2 |
| 20260506085122 | 76 | 127 | 4.3 | 8.7 | 0.00 | 0.00 | 0.00 | 81 | 1007.1 |
| 20260506084621 | 76 | 176 | 3.5 | 10.4 | 0.00 | 0.00 | 0.00 | 81 | 1007.0 |
| 20260506084122 | 76 | 147 | 5.2 | 11.3 | 0.00 | 0.00 | 0.00 | 81 | 1007.0 |
| 20260506083621 | 76 | 128 | 4.3 | 11.3 | 0.00 | 0.00 | 0.00 | 81 | 1006.9 |
| 20260506083121 | 76 | 128 | 5.2 | 10.4 | 0.00 | 0.00 | 0.00 | 81 | 1007.0 |
| 20260506082622 | 76 | 124 | 5.2 | 10.4 | 0.00 | 0.00 | 0.00 | 81 | 1007.0 |
| 20260506082121 | 76 | 87 | 5.2 | 11.3 | 0.00 | 0.00 | 0.00 | 81 | 1007.1 |
| 20260506081622 | 76 | 116 | 6.1 | 12.2 | 0.00 | 0.00 | 0.00 | 81 | 1007.1 |
| 20260506081121 | 76 | 158 | 7.8 | 12.2 | 0.00 | 0.00 | 0.00 | 81 | 1007.1 |
| 20260506080621 | 76 | 121 | 5.2 | 11.3 | 0.00 | 0.00 | 0.00 | 81 | 1007.0 |
| 20260506080121 | 76 | 110 | 7.0 | 10.4 | 0.00 | 0.00 | 0.00 | 81 | 1007.1 |
| 20260506073121 | 76 | 116 | 7.8 | 13.9 | 0.00 | 0.00 | 0.00 | 82 | 1007.2 |
| 20260506072620 | 76 | 110 | 7.0 | 13.0 | 0.00 | 0.00 | 0.00 | 82 | 1007.2 |
| 20260506072120 | 76 | 131 | 4.3 | 10.4 | 0.00 | 0.00 | 0.00 | 82 | 1007.3 |
| 20260506071620 | 76 | 85 | 4.3 | 10.4 | 0.00 | 0.00 | 0.00 | 82 | 1007.3 |
| 20260506071122 | 76 | 135 | 4.3 | 10.4 | 0.00 | 0.00 | 0.00 | 82 | 1007.3 |
| 20260506070620 | 76 | 140 | 5.2 | 13.9 | 0.00 | 0.00 | 0.00 | 82 | 1007.3 |
| 20260506070120 | 76 | 135 | 7.0 | 13.9 | 0.00 | 0.00 | 0.00 | 82 | 1007.3 |
| 20260506062119 | 76 | 130 | 4.3 | 10.4 | 0.00 | 0.00 | 0.00 | 82 | 1007.6 |
| 20260506061620 | 76 | 113 | 4.3 | 14.8 | 0.00 | 0.00 | 0.00 | 82 | 1007.7 |
| 20260506061119 | 76 | 131 | 5.2 | 14.8 | 0.00 | 0.00 | 0.00 | 82 | 1007.6 |
| 20260506060118 | 76 | 125 | 7.0 | 15.6 | 0.00 | 0.00 | 0.00 | 82 | 1007.6 |
| 20260506050618 | 76 | 133 | 7.8 | 12.2 | 0.00 | 0.00 | 0.00 | 82 | 1008.0 |
| 20260506050118 | 76 | 144 | 5.2 | 12.2 | 0.00 | 0.00 | 0.00 | 82 | 1008.0 |
| 20260506045117 | 76 | 144 | 5.2 | 11.3 | 0.00 | 0.00 | 0.00 | 82 | 1008.1 |
| 20260506044618 | 76 | 130 | 5.2 | 13.0 | 0.00 | 0.00 | 0.00 | 82 | 1007.9 |
| 20260506043617 | 76 | 148 | 6.1 | 15.6 | 0.00 | 0.00 | 0.00 | 82 | 1007.9 |
| 20260506043117 | 76 | 145 | 9.6 | 15.6 | 0.00 | 0.00 | 0.00 | 82 | 1007.9 |
| 20260506042618 | 76 | 110 | 7.0 | 11.3 | 0.00 | 0.00 | 0.00 | 82 | 1007.8 |
| 20260506042118 | 76 | 151 | 7.8 | 11.3 | 0.00 | 0.00 | 0.00 | 82 | 1007.9 |
| 20260506041617 | 76 | 159 | 5.2 | 13.0 | 0.00 | 0.00 | 0.00 | 82 | 1007.8 |
| 20260506041117 | 76 | 151 | 6.1 | 13.0 | 0.00 | 0.00 | 0.00 | 82 | 1007.7 |
| 20260506040617 | 76 | 141 | 7.0 | 12.2 | 0.00 | 0.00 | 0.00 | 81 | 1007.6 |
| 20260506040117 | 76 | 148 | 6.1 | 14.8 | 0.00 | 0.00 | 0.00 | 81 | 1007.5 |
| 20260506035617 | 76 | 110 | 7.8 | 14.8 | 0.00 | 0.00 | 0.00 | 81 | 1007.3 |
| 20260506035117 | 76 | 148 | 8.7 | 14.8 | 0.00 | 0.00 | 0.00 | 81 | 1007.1 |
| 20260506034616 | 76 | 154 | 6.1 | 11.3 | 0.00 | 0.00 | 0.00 | 81 | 1007.1 |
| 20260506034116 | 76 | 130 | 7.0 | 13.0 | 0.00 | 0.00 | 0.00 | 81 | 1007.1 |
| 20260506033617 | 76 | 158 | 7.8 | 13.9 | 0.00 | 0.00 | 0.00 | 81 | 1007.0 |
| 20260506033116 | 76 | 123 | 7.8 | 13.9 | 0.00 | 0.00 | 0.00 | 81 | 1006.9 |
| 20260506032616 | 76 | 145 | 7.8 | 12.2 | 0.00 | 0.00 | 0.00 | 81 | 1006.8 |
| 20260506032117 | 76 | 127 | 7.0 | 13.9 | 0.00 | 0.00 | 0.00 | 81 | 1006.7 |
| 20260506031616 | 76 | 190 | 5.2 | 13.9 | 0.00 | 0.00 | 0.00 | 81 | 1006.7 |
| 20260506031116 | 76 | 130 | 5.2 | 13.9 | 0.00 | 0.00 | 0.00 | 80 | 1006.7 |
| 20260506030616 | 76 | 127 | 6.1 | 12.2 | 0.00 | 0.00 | 0.00 | 80 | 1006.7 |
| 20260506030115 | 76 | 127 | 7.8 | 13.9 | 0.00 | 0.00 | 0.00 | 80 | 1006.6 |
| 20260506025615 | 77 | 127 | 10.4 | 13.9 | 0.00 | 0.00 | 0.00 | 80 | 1006.5 |
| 20260506025116 | 77 | 124 | 7.0 | 14.8 | 0.00 | 0.00 | 0.00 | 80 | 1006.5 |
| 20260506024615 | 77 | 128 | 8.7 | 14.8 | 0.00 | 0.00 | 0.00 | 80 | 1006.4 |
| 20260506024115 | 77 | 135 | 6.1 | 16.5 | 0.00 | 0.00 | 0.00 | 80 | 1006.4 |
| 20260506023616 | 77 | 151 | 8.7 | 16.5 | 0.00 | 0.00 | 0.00 | 80 | 1006.2 |
| 20260506023115 | 77 | 137 | 7.8 | 13.0 | 0.00 | 0.00 | 0.00 | 80 | 1006.3 |
| 20260506022615 | 77 | 159 | 7.8 | 13.0 | 0.00 | 0.00 | 0.00 | 79 | 1006.3 |
| 20260506022115 | 78 | 151 | 7.0 | 15.6 | 0.00 | 0.00 | 0.00 | 79 | 1006.2 |
| 20260506021615 | 78 | 149 | 7.0 | 15.6 | 0.00 | 0.00 | 0.00 | 79 | 1006.3 |
| 20260506021114 | 78 | 137 | 7.8 | 13.0 | 0.00 | 0.00 | 0.00 | 79 | 1006.1 |
| 20260506020615 | 78 | 151 | 9.6 | 13.9 | 0.00 | 0.00 | 0.00 | 79 | 1006.0 |
| 20260506020114 | 78 | 107 | 5.2 | 13.9 | 0.00 | 0.00 | 0.00 | 78 | 1006.0 |
| 20260506015112 | 78 | 94 | 7.8 | 15.6 | 0.00 | 0.00 | 0.00 | 78 | 1006.0 |
| 20260506014613 | 78 | 0 | 7.8 | 13.0 | 0.00 | 0.00 | 0.00 | 78 | 1006.0 |
| 20260506013615 | 79 | 114 | 7.0 | 11.3 | 0.00 | 0.00 | 0.00 | 78 | 1005.8 |
| 20260506013114 | 79 | 144 | 7.0 | 13.9 | 0.00 | 0.00 | 0.00 | 77 | 1005.8 |
| 20260506012114 | 79 | 137 | 7.0 | 16.5 | 0.00 | 0.00 | 0.00 | 77 | 1005.8 |
| 20260506011614 | 79 | 145 | 9.6 | 16.5 | 0.00 | 0.00 | 0.00 | 77 | 1005.7 |
| 20260506010615 | 80 | 123 | 7.8 | 12.2 | 0.00 | 0.00 | 0.00 | 76 | 1005.6 |
| 20260506010113 | 80 | 134 | 7.8 | 14.8 | 0.00 | 0.00 | 0.00 | 76 | 1005.5 |
| 20260506005114 | 80 | 141 | 7.0 | 17.4 | 0.00 | 0.00 | 0.00 | 75 | 1005.3 |
| 20260506004613 | 81 | 134 | 9.6 | 17.4 | 0.00 | 0.00 | 0.00 | 75 | 1005.3 |
| 20260506003613 | 81 | 157 | 9.6 | 18.2 | 0.00 | 0.00 | 0.00 | 74 | 1005.3 |
| 20260506003113 | 81 | 140 | 11.3 | 18.2 | 0.00 | 0.00 | 0.00 | 74 | 1005.2 |
| 20260506002113 | 82 | 168 | 11.3 | 16.5 | 0.00 | 0.00 | 0.00 | 73 | 1005.1 |
| 20260506001613 | 82 | 154 | 9.6 | 17.4 | 0.00 | 0.00 | 0.00 | 73 | 1005.0 |
| 20260506001112 | 82 | 135 | 9.6 | 17.4 | 0.00 | 0.00 | 0.00 | 73 | 1005.0 |
| 20260506000613 | 82 | 140 | 7.8 | 17.4 | 0.00 | 0.00 | 0.00 | 73 | 1004.9 |
| 20260506000113 | 83 | 169 | 9.6 | 18.2 | 0.00 | 0.00 | 0.00 | 73 | 1004.8 |
| 20260505235613 | 83 | 140 | 9.6 | 18.2 | 0.00 | 0.00 | 0.00 | 73 | 1004.8 |
| 20260505235113 | 83 | 111 | 9.6 | 16.5 | 0.00 | 0.00 | 0.00 | 73 | 1004.8 |
| 20260505234613 | 83 | 110 | 10.4 | 17.4 | 0.00 | 0.00 | 0.00 | 73 | 1004.9 |
| 20260505234113 | 83 | 137 | 11.3 | 17.4 | 0.00 | 0.00 | 0.00 | 73 | 1004.6 |
| 20260505233612 | 83 | 0 | 10.4 | 20.0 | 0.00 | 0.00 | 0.00 | 73 | 1004.6 |
| 20260505232612 | 83 | 114 | 8.7 | 24.3 | 0.00 | 0.00 | 0.00 | 72 | 1004.8 |
| 20260505232112 | 83 | 121 | 12.2 | 24.3 | 0.00 | 0.00 | 0.00 | 72 | 1004.7 |
| 20260505231112 | 83 | 125 | 9.6 | 19.1 | 0.00 | 0.00 | 0.00 | 72 | 1004.6 |
| 20260505230612 | 83 | 121 | 11.3 | 18.2 | 0.00 | 0.00 | 0.00 | 72 | 1004.5 |
| 20260505225612 | 84 | 96 | 11.3 | 19.1 | 0.00 | 0.00 | 0.00 | 71 | 1004.6 |
| 20260505225112 | 84 | 110 | 9.6 | 19.1 | 0.00 | 0.00 | 0.00 | 71 | 1004.6 |
| 20260505224611 | 84 | 111 | 11.3 | 18.2 | 0.00 | 0.00 | 0.00 | 71 | 1004.7 |
| 20260505224111 | 84 | 82 | 9.6 | 18.2 | 0.00 | 0.00 | 0.00 | 71 | 1004.5 |
| 20260505223111 | 85 | 93 | 11.3 | 20.9 | 0.00 | 0.00 | 0.00 | 70 | 1004.6 |
| 20260505222611 | 85 | 109 | 7.0 | 20.9 | 0.00 | 0.00 | 0.00 | 70 | 1004.6 |
| 20260505221611 | 86 | 61 | 12.2 | 20.9 | 0.00 | 0.00 | 0.00 | 68 | 1004.6 |
| 20260505221111 | 87 | 124 | 9.6 | 18.2 | 0.00 | 0.00 | 0.00 | 68 | 1004.5 |
| 20260505220111 | 87 | 135 | 8.7 | 19.1 | 0.00 | 0.00 | 0.00 | 67 | 1004.6 |
| 20260505215611 | 87 | 110 | 7.8 | 19.1 | 0.00 | 0.00 | 0.00 | 67 | 1004.7 |
| 20260505215110 | 87 | 110 | 9.6 | 19.1 | 0.00 | 0.00 | 0.00 | 67 | 1004.7 |
| 20260505214610 | 88 | 147 | 8.7 | 17.4 | 0.00 | 0.00 | 0.00 | 65 | 1004.9 |
| 20260505213610 | 89 | 147 | 9.6 | 18.2 | 0.00 | 0.00 | 0.00 | 64 | 1004.8 |
| 20260505213111 | 89 | 121 | 10.4 | 18.2 | 0.00 | 0.00 | 0.00 | 64 | 1004.8 |
| 20260505212110 | 90 | 138 | 8.7 | 13.0 | 0.00 | 0.00 | 0.00 | 62 | 1004.8 |
| 20260505211609 | 89 | 204 | 7.8 | 12.2 | 0.00 | 0.00 | 0.00 | 63 | 1005.0 |
| 20260505210610 | 89 | 154 | 6.1 | 14.8 | 0.00 | 0.00 | 0.00 | 63 | 1005.2 |
| 20260505210110 | 89 | 114 | 9.6 | 13.0 | 0.00 | 0.00 | 0.00 | 62 | 1005.3 |
| 20260505205608 | 89 | 152 | 7.8 | 13.0 | 0.00 | 0.00 | 0.00 | 62 | 1005.5 |
| 20260505205109 | 89 | 73 | 7.8 | 13.0 | 0.00 | 0.00 | 0.00 | 62 | 1005.5 |
| 20260505204609 | 89 | 142 | 7.0 | 13.0 | 0.00 | 0.00 | 0.00 | 62 | 1005.6 |
| 20260505204109 | 89 | 176 | 8.7 | 13.0 | 0.00 | 0.00 | 0.00 | 61 | 1005.7 |
| 20260505203609 | 89 | 147 | 7.0 | 12.2 | 0.00 | 0.00 | 0.00 | 61 | 1005.8 |
| 20260505203109 | 89 | 154 | 6.1 | 12.2 | 0.00 | 0.00 | 0.00 | 61 | 1005.8 |
| 20260505202609 | 89 | 104 | 7.0 | 13.9 | 0.00 | 0.00 | 0.00 | 62 | 1005.9 |
| 20260505202109 | 89 | 155 | 7.8 | 14.8 | 0.00 | 0.00 | 0.00 | 60 | 1006.0 |
| 20260505201109 | 89 | 147 | 6.1 | 10.4 | 0.00 | 0.00 | 0.00 | 61 | 1006.1 |
| 20260505200608 | 89 | 148 | 6.1 | 13.9 | 0.00 | 0.00 | 0.00 | 60 | 1006.1 |
| 20260505200108 | 89 | 161 | 4.3 | 13.9 | 0.00 | 0.00 | 0.00 | 60 | 1006.2 |
| 20260505195608 | 89 | 214 | 7.0 | 13.9 | 0.00 | 0.00 | 0.00 | 61 | 1006.1 |
| 20260505195109 | 89 | 161 | 4.3 | 10.4 | 0.00 | 0.00 | 0.00 | 63 | 1006.3 |
| 20260505194608 | 88 | 125 | 7.8 | 13.0 | 0.00 | 0.00 | 0.00 | 62 | 1006.3 |
| 20260505194109 | 88 | 192 | 7.0 | 14.8 | 0.00 | 0.00 | 0.00 | 62 | 1006.3 |
| 20260505193608 | 89 | 131 | 9.6 | 14.8 | 0.00 | 0.00 | 0.00 | 61 | 1006.4 |
| 20260505193108 | 89 | 142 | 7.0 | 9.6 | 0.00 | 0.00 | 0.00 | 62 | 1006.5 |
| 20260505192608 | 89 | 161 | 5.2 | 12.2 | 0.00 | 0.00 | 0.00 | 63 | 1006.6 |
| 20260505192107 | 89 | 166 | 4.3 | 12.2 | 0.00 | 0.00 | 0.00 | 62 | 1006.9 |
| 20260505191103 | 89 | 196 | 3.5 | 12.2 | 0.00 | 0.00 | 0.00 | 64 | 1006.9 |
| 20260505190604 | 88 | 152 | 5.2 | 10.4 | 0.00 | 0.00 | 0.00 | 63 | 1006.9 |
| 20260505185601 | 88 | 158 | 4.3 | 13.0 | 0.00 | 0.00 | 0.00 | 63 | 1006.9 |
| 20260505185101 | 88 | 195 | 5.2 | 13.0 | 0.00 | 0.00 | 0.00 | 64 | 1007.0 |
| 20260505184100 | 86 | 283 | 4.3 | 13.9 | 0.00 | 0.00 | 0.00 | 66 | 1007.1 |
| 20260505183601 | 86 | 157 | 8.7 | 14.8 | 0.00 | 0.00 | 0.00 | 65 | 1007.1 |
| 20260505183103 | 86 | 161 | 4.3 | 14.8 | 0.00 | 0.00 | 0.00 | 66 | 1007.1 |
| 20260505182600 | 86 | 175 | 4.3 | 13.0 | 0.00 | 0.00 | 0.00 | 66 | 1007.2 |